Regional Weather Roundup
Issued by NWS

Home | Current Version | Previous Version | Graphics & Text | Print | Product List | Glossary On
Versions: 1 2 3 4 5 6 7 8 9 10 11 12 13 14 15 16 17 18 19 20 21 22 23 24 25 26 27 28 29 30 31 32 33 34 35 36 37 38 39 40 41 42 43 44 45 46 47 48 49 50
843
ASUS43 KIND 112009
RWRIN

WEATHER ROUNDUP FOR INDIANA
NATIONAL WEATHER SERVICE INDIANAPOLIS IN
300 PM EST THU FEB 11 2016

NOTE: "FAIR" INDICATES FEW OR NO CLOUDS BELOW 12,000 FEET WITH NO
SIGNIFICANT WEATHER AND/OR OBSTRUCTIONS TO VISIBILITY.

* - STATION DOES NOT REPORT WEATHER SUCH AS PRECIPITATION OR FOG.

+ - STATION NOT QUALITY CONTROLLED BY THE NATIONAL WEATHER SERVICE.
    USE DATA WITH CAUTION...ESPECIALLY DEWPOINT AND RELATIVE
    HUMIDITY OBSERVATIONS.

INZ001>003-010>013-019-020-112100-
NORTHWEST INDIANA

CITY           SKY/WX    TMP DP  RH WIND       PRES   REMARKS
GARY /AIRPORT/ MOSUNNY   23   3  42 N9        30.30F WCI  13
KNOX *+        MOSUNNY   21  10  63 NW8       30.28S WCI  12
LA PORTE +     MOSUNNY   22  12  65 NW7       30.27F WCI  14
MICHIGAN CITY+ MOSUNNY   21  10  63 NW10      30.29S WCI  10
MONTICELLO +   MOSUNNY   23   1  39 NW6       30.28F WCI  15
RENSSELAER +   SUNNY     25   0  33 NE3       30.28F
VALPARAISO     CLOUDY    21  10  62 N8        30.28F WCI  11

$$

LMZ046-743>745-112100-
SOUTHERN LAKE MICHIGAN

STATION/POSITION TIME  TEMP    WIND        PRES    WAVE
                       AIR SEA DIR/SP/G            HT
                 (UTC) (F)     (DEG/KT/KT) (MB)    (FT)
BURNS HARBOR     2000   18     310/  8/ 18 1026.4F
MICHIGAN CITY    1900   19     260/ 17/ 19   N/A

$$

INZ004-005-014>016-021>024-112100-
NORTH CENTRAL INDIANA

CITY           SKY/WX    TMP DP  RH WIND       PRES   REMARKS
ELKHART        MOSUNNY   21   7  53 W10       30.25S WCI  10
GOSHEN         CLOUDY    20  11  68 W12       30.25S WCI   8
LOGANSPORT +   PTSUNNY   21   1  42 N5        30.28S WCI  15
PERU/GRISSOM   MOSUNNY   22   6  50 NW8       30.25F WCI  12
ROCHESTER +    PTSUNNY   25   5  42 NW9       30.26F WCI  15
SOUTH BEND     CLOUDY    20   8  60 NW10      30.26S WCI   9
WARSAW +       PTSUNNY   21  12  68 NW8       30.25S WCI  12

$$

INZ006>009-017-018-025>027-112100-
NORTHEAST INDIANA

CITY           SKY/WX    TMP DP  RH WIND       PRES   REMARKS
ANGOLA *+      PTSUNNY   18   9  68 NW5       30.22S WCI  11
AUBURN +       CLOUDY    23   9  54 NW10      30.25R WCI  12
FORT WAYNE     PTSUNNY   23   6  48 W10       30.26S WCI  12
HUNTINGTON +   CLOUDY    21   3  45 W6        30.26S WCI  14

$$

INZ028-029-035-036-043>045-051>053-112100-
WEST CENTRAL INDIANA

CITY           SKY/WX    TMP DP  RH WIND       PRES   REMARKS
GREENCASTLE +  SUNNY     23   0  36 CALM      30.27F
LAFAYETTE      SUNNY     24   3  40 W10       30.28F WCI  14
TERRE HAUTE    SUNNY     25   5  42 CALM      30.30F

$$

INZ030>032-037>040-046>048-054>057-064-065-112100-
CENTRAL INDIANA

CITY           SKY/WX    TMP DP  RH WIND       PRES   REMARKS
ANDERSON       PTSUNNY   21   9  58 NW12      30.27  WCI   9
COLUMBUS       SUNNY     23  10  58 NE5       30.29S WCI  17
FISHERS *+     PTSUNNY   23  12  63 NW3       30.26F
FRANKFORT +    MOSUNNY   26  -2  30 NW3       30.27F
GREENWOOD *+   SUNNY     25  10  54 S3        30.27F
INDIANAPOLIS   MOSUNNY   24   6  46 E3        30.26F
-EAGLE CREEK   SUNNY     24   8  50 N6        30.26F WCI  17
KOKOMO *+      PTSUNNY   21   7  53 NW6       30.27S WCI  14
MARION +       PTSUNNY   21   2  43 W8        30.27S WCI  11
MT COMFORT *+  SUNNY     23   7  50 SW3       30.26F
SHELBYVILLE    SUNNY     23   7  50 VRB3      30.27F
ZIONSVILLE +   MOSUNNY   21   8  57 CALM      30.26F

$$

INZ033-034-041-042-049-050-058-059-112100-
EAST CENTRAL INDIANA

CITY           SKY/WX    TMP DP  RH WIND       PRES   REMARKS
MUNCIE         MOSUNNY   21   7  54 W10       30.26S WCI  10

$$

INZ060-061-067>069-081>083-085>088-112100-
SOUTHWEST INDIANA

CITY           SKY/WX    TMP DP  RH WIND       PRES   REMARKS
EVANSVILLE     SUNNY     33  12  41 N6        30.29F WCI  28
HUNTINGBURG *+ SUNNY     28  10  47 N6        30.28F WCI  22
WASHINGTON +   SUNNY     27   6  41 CALM      30.29S

$$

INZ062-063-066-070>080-084-089>092-112100-
SOUTH CENTRAL AND SOUTHEAST INDIANA

CITY           SKY/WX    TMP DP  RH WIND       PRES   REMARKS
BLOOMINGTON    SUNNY     26   8  46 N3        30.26F
MADISON *+     SUNNY     27   9  46 NW5       30.28S WCI  21
NORTH VERNON + SUNNY     23   5  46 CALM      30.29S
SEYMOUR +      SUNNY     28  12  50 NE6       30.28F WCI  22

$$





USA.gov is the U.S. government's official web portal to all federal, state and local government web resources and services.